"Pseudo-MPEC" for ZC88102

Created 2018 Feb 20 11:18:10 UT using Find_Orb

Astrometry:
     ZC88102  C2018 02 10.33836 11 16 46.61 +29 26 26.8          20.9 GUNEOCPG96
     ZC88102  C2018 02 10.34348 11 16 46.10 +29 26 27.4          21.1 GUNEOCPG96
     ZC88102  C2018 02 10.34861 11 16 45.65 +29 26 28.1          20.9 GUNEOCPG96
     ZC88102  C2018 02 10.35374 11 16 45.19 +29 26 28.6          20.8 GUNEOCPG96
     ZC88102  C2018 02 16,_AstrometryA@5A-047*KjTHTm_fE3TFD,:?/1xop?5+:BO3$TIL01
     ZC88102 pC2018 02 16XHbDmOS:N9nh2#S0sIOb.D+JsJMvYP.'l-Nv`BJS78e:kvgn%PI5L01
     ZC88102  C2018 02 16'vS+$*dT8E!Etw_pGredacted;8-9$^TCRYs.]b5Ypu7_F8_G83DL01
     ZC88102 KC2018 02 20Q)kjk^HmBjN[\rL,vGCv`iiy6[242Ya=see$._x3J4CPtsQp7a9kL01
     ZC88102 KC2018 02 20Rt#f`sF=ZcAh#HAj]:,ZD'Tuy$g`=Xlk[YQ/Yniv62y8SD068K]wL01
     ZC88102 KC2018 02 20%Xv)y7FW)kmBu7EL'W%sdI)UbEEC_WshW0hhnY5d!7`l7fMNEOCPL01

Station data:
(G96) Mt. Lemmon Survey  (N32.442751 W110.788720)  US/Arizona.  Observers E.
   J. Christensen, A. R. Gibbs, A. D. Grauer, R. E. Hill, J. A. Johnson, R.
   A. Kowalski, S. M. Larson, F. C. Shelly. 1.5-m reflector + CCD.
(L01) Višnjan Observatory, Tican  (N45.290897 E13.749300)  Croatia.

Orbital elements:  ZC88102
   Perihelion 2018 Oct 7.539949 +/- 0.511 TT = 12:57:31 (JD 2458399.039949)
Epoch 2018 Feb 20.0 TT = JDT 2458169.5   Earth MOID: 0.6363   Ma: 0.0906
M 269.62756 +/- 0.34                (J2000 ecliptic)          AutoNEOCP
n   0.39371114 +/- 0.000904         Peri.  259.06644 +/- 0.12
a   1.84367446 +/- 0.00282          Node     1.91666 +/- 0.08
e   0.1741878 +/- 0.00246           Incl.   20.70322 +/- 0.08
P   2.50/914.36d           H 18.8   G  0.15   U  8.0  
q 1.52252884 +/- 0.00232    Q 2.16482008 +/- 0.00779
From 10 observations 2018 Feb. 10-20; mean residual 0".37
Residuals in arcseconds: 
180210 G96  .45+  .05+    180216 L01  .72-  .27+    180220 L01  .21-  .33+    
180210 G96  .23-  .00     180216 L01  1.0+  .33+    180220 L01  .04+  .12-    
180210 G96  .11-  .05+    180216 L01  .33-  .60-    
180210 G96  .11-  .09-    180220 L01  .18+  .21-    

Ephemerides (geocentric):
Date (UTC) HH   RA              Dec         delta   r     elong  mag " sig PA
---- -- -- --  ------------   ------------  ------ ------ -----  --- ---- ---
2018 02 20 11  11 00 07.185   +29 32 00.32  .94454 1.8996 158.5 20.7  .24 177
2018 02 20 12  11 00 02.629   +29 31 57.31  .94440 1.8995 158.5 20.7  .25 176
2018 02 20 13  10 59 58.070   +29 31 54.26  .94425 1.8994 158.6 20.7  .26 176
2018 02 20 14  10 59 53.509   +29 31 51.16  .94411 1.8993 158.6 20.7  .27 176
2018 02 20 15  10 59 48.944   +29 31 48.03  .94396 1.8992 158.6 20.7  .28 176
2018 02 20 16  10 59 44.377   +29 31 44.85  .94382 1.8991 158.6 20.7  .29 175
2018 02 20 17  10 59 39.807   +29 31 41.63  .94367 1.8990 158.6 20.7  .30 175
2018 02 20 18  10 59 35.235   +29 31 38.37  .94353 1.8989 158.6 20.7  .30 175
2018 02 20 19  10 59 30.659   +29 31 35.07  .94339 1.8989 158.6 20.7  .31 175
2018 02 20 20  10 59 26.082   +29 31 31.72  .94324 1.8988 158.7 20.7  .32 174
2018 02 20 21  10 59 21.501   +29 31 28.33  .94310 1.8987 158.7 20.7  .33 174
2018 02 20 22  10 59 16.918   +29 31 24.90  .94296 1.8986 158.7 20.7  .34 174
2018 02 20 23  10 59 12.332   +29 31 21.43  .94282 1.8985 158.7 20.7  .35 174
2018 02 21 00  10 59 07.743   +29 31 17.92  .94268 1.8984 158.7 20.7  .36 174
2018 02 21 01  10 59 03.152   +29 31 14.37  .94254 1.8983 158.7 20.7  .37 173
2018 02 21 02  10 58 58.558   +29 31 10.77  .94240 1.8982 158.7 20.7  .38 173
2018 02 21 03  10 58 53.962   +29 31 07.13  .94226 1.8982 158.8 20.7  .39 173
2018 02 21 04  10 58 49.363   +29 31 03.45  .94212 1.8981 158.8 20.7  .40 173
2018 02 21 05  10 58 44.761   +29 30 59.72  .94198 1.8980 158.8 20.7  .41 173
2018 02 21 06  10 58 40.157   +29 30 55.96  .94184 1.8979 158.8 20.7  .42 172
2018 02 21 07  10 58 35.550   +29 30 52.15  .94170 1.8978 158.8 20.7  .43 172
2018 02 21 08  10 58 30.941   +29 30 48.30  .94157 1.8977 158.8 20.7  .44 172
2018 02 21 09  10 58 26.329   +29 30 44.40  .94143 1.8976 158.8 20.7  .45 172
2018 02 21 10  10 58 21.715   +29 30 40.47  .94129 1.8975 158.8 20.7  .46 172
2018 02 21 11  10 58 17.098   +29 30 36.49  .94116 1.8974 158.9 20.7  .48 172
2018 02 21 12  10 58 12.479   +29 30 32.47  .94102 1.8974 158.9 20.7  .49 171
2018 02 21 13  10 58 07.857   +29 30 28.40  .94089 1.8973 158.9 20.7  .50 171
2018 02 21 14  10 58 03.233   +29 30 24.30  .94075 1.8972 158.9 20.7  .51 171
2018 02 21 15  10 57 58.606   +29 30 20.14  .94062 1.8971 158.9 20.7  .52 171
2018 02 21 16  10 57 53.977   +29 30 15.95  .94048 1.8970 158.9 20.7  .53 171
2018 02 21 17  10 57 49.345   +29 30 11.72  .94035 1.8969 158.9 20.7  .54 171
2018 02 21 18  10 57 44.711   +29 30 07.44  .94022 1.8968 158.9 20.7  .55 170
2018 02 21 19  10 57 40.075   +29 30 03.11  .94008 1.8967 158.9 20.7  .56 170
2018 02 21 20  10 57 35.436   +29 29 58.75  .93995 1.8967 159.0 20.7  .58 170
2018 02 21 21  10 57 30.795   +29 29 54.34  .93982 1.8966 159.0 20.7  .59 170
2018 02 21 22  10 57 26.151   +29 29 49.89  .93969 1.8965 159.0 20.7  .60 170
2018 02 21 23  10 57 21.505   +29 29 45.39  .93956 1.8964 159.0 20.7  .61 170
2018 02 22 00  10 57 16.857   +29 29 40.85  .93943 1.8963 159.0 20.7  .62 169
2018 02 22 01  10 57 12.206   +29 29 36.27  .93930 1.8962 159.0 20.7  .63 169
2018 02 22 02  10 57 07.553   +29 29 31.65  .93917 1.8961 159.0 20.7  .65 169
2018 02 22 03  10 57 02.898   +29 29 26.98  .93904 1.8960 159.0 20.7  .66 169
2018 02 22 04  10 56 58.240   +29 29 22.27  .93891 1.8960 159.0 20.7  .67 169
2018 02 22 05  10 56 53.580   +29 29 17.51  .93878 1.8959 159.0 20.7  .68 169
2018 02 22 06  10 56 48.918   +29 29 12.71  .93865 1.8958 159.1 20.7  .69 169
2018 02 22 07  10 56 44.254   +29 29 07.87  .93853 1.8957 159.1 20.7  .71 168
2018 02 22 08  10 56 39.587   +29 29 02.98  .93840 1.8956 159.1 20.7  .72 168
2018 02 22 09  10 56 34.918   +29 28 58.05  .93827 1.8955 159.1 20.7  .73 168
2018 02 22 10  10 56 30.247   +29 28 53.07  .93815 1.8954 159.1 20.7  .74 168